Wind_Speed
56 66 78 90 108 128 141 146 143 141 141 143 144 135 120 121 123 120 118 115 111 110 109 101 98 98 97 95 99 102 99 94 86 86 84 80 77 77 74 74 71 69 68 65
49 60 72 84 98 109 124 139 141 140 142 145 137 130 128 130 128 121 120 118 116 114 112 113 110 106 103 103 102 101 102 99 93 91 91 86 83 83 81 79 77 75 77 73
45 58 68 76 88 100 114 132 142 143 143 144 139 134 129 126 132 133 121 120 120 118 117 113 110 110 110 107 109 106 104 102 100 97 96 95 89 89 90 88 82 84 83 82
41 53 64 73 78 96 106 120 131 142 142 142 140 140 139 136 134 133 131 123 122 122 122 120 119 114 111 110 112 112 110 108 107 104 103 100 98 96 96 94 91 90 91 90
39 50 60 69 74 84 97 110 119 133 139 142 139 144 145 140 137 133 130 125 123 125 123 125 125 122 121 119 118 118 117 117 112 111 109 108 106 103 101 102 102 99 100 96
37 46 57 67 72 80 92 102 115 124 134 140 140 144 145 143 140 138 134 133 127 120 125 125 127 126 125 125 124 121 120 118 117 116 117 116 110 107 109 109 106 103 103 103
35 43 49 56 61 69 81 94 104 112 122 131 135 138 142 142 142 140 140 137 137 130 122 124 124 126 127 126 123 119 117 117 120 121 121 121 112 113 114 113 112 110 109 108
29 39 48 51 59 66 75 85 96 102 110 119 126 129 139 142 143 142 145 145 144 142 135 130 124 125 121 122 123 123 120 119 119 122 123 124 121 119 119 118 119 119 117 116
23 32 42 51 56 61 66 71 85 96 102 112 115 119 127 134 140 139 142 148 147 147 144 141 136 132 125 125 122 121 121 122 125 127 128 129 126 126 128 128 127 125 124 124
23 27 34 43 49 55 62 66 75 84 94 104 110 113 120 127 130 132 136 140 141 146 147 146 144 140 136 134 132 129 125 125 127 129 129 132 134 133 131 131 131 132 132 132
22 26 28 30 38 49 56 63 69 76 85 94 103 109 109 112 118 123 125 125 133 140 146 149 148 146 145 142 140 139 139 135 133 132 133 135 135 135 135 135 136 137 138 139
20 24 29 35 37 42 52 58 66 72 77 83 89 97 103 104 106 112 118 122 126 129 134 139 145 147 144 144 144 145 144 141 140 140 140 142 142 144 145 146 146 147 145 146
19 22 29 35 40 42 47 53 65 67 74 78 80 83 88 93 97 100 104 110 116 123 128 130 132 138 139 141 144 145 142 142 142 142 145 146 146 145 144 145 147 149 148 149
18 21 25 30 34 38 46 56 59 68 72 74 77 83 86 87 90 93 95 98 104 108 111 114 117 119 123 131 137 139 140 142 142 143 146 150 150 148 147 146 146 146 147 147
16 19 23 27 32 40 51 59 63 67 71 76 79 83 86 89 88 88 90 90 91 96 99 101 104 108 111 116 120 125 130 133 135 137 140 141 142 141 139 140 141 142 143 144
18 16 19 24 29 35 43 48 56 64 75 75 84 85 88 87 93 97 96 96 96 94 95 97 99 99 101 105 108 112 116 120 123 126 128 130 131 132 134 137 139 141 143 145
19 17 16 19 25 33 38 42 47 53 60 70 82 84 85 90 92 97 103 102 102 98 98 101 104 104 103 103 104 109 113 116 119 120 121 121 121 125 128 131 134 135 136 138
21 18 16 17 23 27 31 37 43 49 59 68 75 84 88 94 98 98 100 98 99 102 105 107 109 107 106 109 110 108 107 107 108 111 114 116 117 120 124 125 127 130 132 134
27 20 17 17 19 22 28 35 40 45 50 54 58 62 69 86 95 92 95 102 105 109 107 107 110 112 113 111 108 106 104 103 105 106 104 105 106 108 110 111 113 116 119 121
32 27 21 18 18 20 23 28 35 40 44 47 49 53 58 62 68 79 100 109 112 117 116 114 105 106 110 107 102 98 99 101 102 102 99 99 100 100 100 101 102 102 102 102
33 28 27 23 20 20 21 24 28 33 37 41 44 47 50 53 57 63 67 72 76 78 82 88 93 97 97 93 92 91 92 94 96 95 94 93 93 92 93 92 91 90 90 89
37 31 26 25 25 23 22 22 24 28 32 35 39 42 45 48 51 54 57 61 62 65 72 74 77 82 81 81 83 85 87 88 87 87 86 85 85 85 86 86 85 85 85 86
41 35 30 27 24 24 25 25 25 25 27 30 33 37 40 43 45 48 50 52 55 60 61 65 72 71 71 73 75 77 78 78 78 78 79 79 79 79 80 80 79 78 78 79
45 39 34 29 23 22 23 25 26 27 28 30 31 33 35 38 41 44 46 47 50 53 58 62 60 61 63 65 66 67 67 68 68 69 69 69 70 71 71 71 72 71 73 74
47 42 37 32 26 23 22 25 27 27 29 31 32 33 34 36 38 40 42 44 46 52 54 53 54 56 57 58 59 59 59 60 61 61 62 63 62 63 64 63 64 64 65 64
49 44 39 34 29 25 24 24 27 30 31 30 31 33 34 35 36 39 40 42 45 47 48 49 51 52 53 55 55 56 57 58 58 58 58 57 56 56 57 59 56 56 53 52
50 45 41 37 32 28 26 26 26 27 29 32 31 32 33 34 35 38 40 41 42 43 44 46 48 50 52 53 55 56 56 55 55 55 53 52 52 52 51 53 51 49 47 47
Wind_Direction
226 220 218 217 217 214 214 213 215 216 219 222 224 227 225 228 229 232 233 235 235 233 234 234 236 239 239 246 250 254 254 258 259 259 261 261 264 268 268 269 270 274 273 267
225 221 217 216 215 214 215 215 215 217 218 221 224 225 228 227 229 229 232 234 235 235 236 237 238 236 239 244 247 249 255 257 258 260 262 263 264 264 266 269 270 274 274 268
222 219 219 216 213 215 213 214 216 216 219 220 221 222 225 228 227 228 229 231 233 235 235 237 238 240 241 242 245 247 252 256 259 260 261 262 261 264 267 269 270 271 272 269
221 219 219 220 211 211 213 215 217 218 220 220 220 223 224 226 228 229 231 230 232 235 237 238 238 237 239 240 242 247 251 255 258 259 260 261 262 264 267 270 271 272 271 270
221 218 218 219 216 213 211 214 216 218 220 221 222 224 223 226 228 229 231 232 233 232 235 238 240 240 240 242 244 247 251 255 257 258 259 260 262 264 266 269 270 270 270 268
230 224 216 219 215 214 211 213 216 218 219 220 222 226 226 225 228 230 230 233 232 234 235 237 239 240 241 243 246 249 252 253 255 257 259 259 260 263 265 266 267 269 269 268
230 227 227 222 223 219 215 214 217 218 220 221 223 225 227 227 228 231 232 233 235 235 235 236 237 241 243 245 246 247 248 251 254 256 257 259 261 262 265 266 268 268 268 268
236 230 228 226 222 218 215 215 217 218 219 221 223 225 226 227 229 232 232 233 234 235 237 237 237 237 239 243 245 247 248 247 251 254 257 259 260 261 262 264 266 267 267 268
239 237 230 229 225 220 217 216 214 218 219 221 223 225 227 229 230 232 234 235 236 237 238 239 240 240 241 241 244 246 247 250 251 254 256 258 258 260 262 265 266 267 267 268
255 239 231 227 224 222 220 217 216 217 219 221 224 227 230 230 231 233 235 237 238 239 239 241 243 243 245 245 244 243 245 248 249 252 255 257 259 260 261 263 265 267 268 269
264 257 247 233 232 226 223 223 221 219 220 221 224 225 229 232 233 233 234 235 239 241 241 241 242 243 246 247 248 249 249 250 249 251 253 254 257 257 259 260 262 264 265 267
265 253 250 250 235 231 230 227 225 223 224 225 226 227 228 231 234 236 236 238 240 241 243 244 245 244 246 248 250 251 252 253 255 254 254 256 257 259 260 261 262 263 264 266
270 251 244 239 240 234 235 235 231 230 229 228 228 230 231 232 234 236 239 240 242 243 245 246 246 246 246 247 249 251 252 254 256 258 259 259 260 259 260 261 263 264 265 266
279 264 252 247 245 241 240 237 235 233 234 231 234 235 238 240 240 240 241 242 244 245 248 248 248 248 248 250 250 252 253 254 255 256 258 259 260 261 262 263 264 265 266 268
289 270 258 247 240 239 242 243 237 235 235 236 237 239 241 241 243 246 247 249 250 248 249 249 250 251 251 252 252 253 253 254 255 256 258 259 260 261 263 264 266 267 268 269
302 283 264 253 245 240 237 238 238 236 236 239 240 244 244 243 245 247 248 253 254 251 252 254 256 256 255 255 256 257 257 256 256 257 258 260 260 262 263 263 264 265 266 267
315 297 280 262 247 240 238 240 243 241 243 243 246 246 247 247 248 248 250 253 254 253 255 258 260 261 261 261 262 261 260 258 258 258 260 261 261 263 263 264 263 264 266 267
325 307 290 273 260 254 248 245 241 239 239 243 245 247 246 247 248 250 252 253 254 255 257 259 260 261 262 264 263 262 261 261 263 263 263 264 265 266 266 267 267 267 267 268
328 317 297 281 268 259 248 243 242 239 238 239 239 239 240 244 247 247 250 253 254 256 256 257 258 260 262 261 262 264 266 268 269 269 269 270 270 268 268 269 270 271 272 273
329 321 310 290 276 265 254 247 243 244 244 244 243 243 241 241 242 242 246 251 253 255 254 254 256 258 260 261 262 264 267 270 270 270 270 271 271 272 273 273 273 273 273 273
334 323 312 303 288 275 268 259 253 248 245 246 246 243 241 241 242 243 245 247 249 252 253 254 254 256 257 260 262 264 267 268 269 270 271 272 272 273 274 275 277 278 279 281
335 329 317 303 296 286 274 266 260 256 252 249 246 245 244 243 243 244 245 246 248 249 251 254 255 257 261 263 265 265 265 266 268 269 271 272 273 275 277 278 279 280 281 282
335 330 324 314 302 292 285 278 270 264 260 255 252 250 247 247 246 246 247 248 247 248 250 250 251 256 258 258 259 261 263 265 267 269 270 272 273 275 276 277 277 278 278 278
335 330 324 321 319 304 290 280 272 268 266 263 259 256 253 253 252 250 249 249 251 253 253 254 257 258 259 261 262 264 265 266 267 269 270 272 273 274 274 275 276 277 277 277
334 330 325 322 316 307 293 281 273 267 263 261 261 260 259 259 259 258 257 257 257 256 259 262 263 264 264 265 267 268 270 271 272 272 273 274 275 276 277 277 277 276 277 278
334 330 325 320 316 308 300 293 285 279 273 268 264 264 264 263 263 263 264 264 263 265 267 268 270 271 273 273 274 274 274 275 276 277 278 279 279 279 279 279 279 279 279 279
334 331 325 320 316 312 303 297 292 287 280 276 273 270 268 265 264 262 263 263 265 266 267 268 269 270 272 273 273 274 276 277 279 280 281 281 281 282 283 284 283 284 285 285
Height
10181 10196 10210 10229 10244 10273 10299 10320 10329 10353 10362 10367 10383 10417 10476 10474 10474 10487 10507 10518 10530 10543 10550 10560 10562 10570 10577 10581 10580 10584 10587 10601 10611 10612 10616 10619 10622 10623 10624 10623 10629 10632 10634 10641
10169 10180 10194 10207 10225 10251 10276 10294 10309 10329 10336 10347 10385 10419 10427 10442 10449 10466 10483 10496 10506 10516 10530 10537 10540 10549 10557 10560 10560 10563 10570 10580 10589 10595 10599 10602 10604 10604 10603 10603 10610 10619 10613 10620
10158 10166 10176 10189 10210 10228 10248 10268 10284 10301 10310 10332 10364 10384 10397 10409 10423 10436 10454 10471 10481 10490 10503 10514 10520 10526 10535 10540 10540 10543 10546 10557 10568 10574 10575 10580 10586 10584 10584 10584 10593 10594 10595 10595
10147 10155 10165 10176 10193 10205 10227 10244 10260 10281 10294 10310 10341 10354 10372 10382 10398 10415 10431 10447 10461 10467 10477 10487 10493 10505 10511 10518 10519 10522 10527 10535 10542 10547 10552 10558 10563 10566 10565 10568 10569 10571 10571 10570
10138 10144 10151 10161 10175 10190 10210 10225 10239 10259 10275 10295 10316 10323 10350 10361 10377 10396 10412 10427 10436 10443 10451 10461 10470 10479 10488 10492 10499 10503 10509 10515 10519 10520 10526 10533 10540 10547 10547 10547 10545 10546 10545 10548
10128 10134 10144 10151 10163 10176 10188 10204 10221 10237 10253 10274 10290 10302 10324 10344 10355 10370 10387 10396 10406 10418 10428 10435 10441 10453 10463 10472 10477 10480 10486 10493 10495 10499 10497 10500 10519 10528 10522 10520 10521 10522 10522 10522
10122 10126 10130 10142 10151 10166 10179 10191 10203 10221 10234 10250 10266 10281 10302 10318 10334 10350 10361 10372 10378 10393 10400 10406 10415 10427 10438 10447 10454 10458 10466 10468 10467 10475 10471 10470 10502 10499 10496 10495 10495 10498 10496 10496
10119 10120 10123 10131 10141 10152 10163 10175 10189 10204 10218 10233 10247 10262 10276 10294 10309 10316 10333 10345 10353 10360 10372 10380 10389 10401 10409 10419 10430 10437 10442 10445 10444 10445 10452 10454 10467 10471 10469 10470 10473 10473 10472 10472
10115 10117 10121 10123 10130 10140 10150 10164 10177 10190 10205 10217 10229 10240 10254 10272 10284 10295 10306 10319 10327 10339 10349 10356 10365 10377 10390 10399 10406 10413 10418 10422 10420 10419 10421 10426 10437 10440 10442 10444 10441 10443 10444 10444
10106 10109 10114 10119 10122 10129 10140 10150 10163 10176 10190 10201 10213 10223 10232 10249 10262 10275 10287 10296 10303 10312 10327 10338 10347 10355 10364 10370 10380 10387 10388 10394 10394 10392 10392 10395 10403 10409 10415 10414 10416 10413 10413 10413
10097 10098 10100 10106 10114 10121 10128 10139 10150 10162 10173 10184 10195 10208 10217 10225 10239 10252 10264 10272 10275 10287 10298 10312 10319 10326 10334 10343 10349 10355 10360 10365 10370 10368 10368 10369 10372 10374 10379 10381 10383 10384 10383 10383
10095 10094 10094 10096 10106 10113 10121 10129 10138 10148 10158 10168 10178 10189 10200 10210 10218 10228 10240 10247 10254 10262 10271 10285 10296 10303 10309 10316 10322 10327 10333 10336 10339 10342 10340 10338 10340 10342 10346 10348 10348 10348 10351 10352
10091 10092 10092 10096 10099 10101 10109 10116 10126 10134 10143 10153 10163 10173 10182 10191 10201 10207 10215 10223 10232 10239 10245 10257 10267 10277 10282 10289 10294 10298 10302 10306 10308 10307 10307 10309 10312 10312 10313 10314 10315 10314 10315 10315
10085 10083 10085 10086 10086 10088 10096 10105 10112 10121 10129 10138 10147 10156 10165 10172 10182 10189 10195 10204 10210 10216 10221 10228 10236 10245 10253 10257 10262 10268 10269 10271 10272 10274 10275 10276 10278 10283 10281 10280 10280 10279 10279 10279
10081 10080 10077 10078 10080 10083 10089 10093 10099 10106 10115 10125 10133 10141 10149 10157 10162 10168 10175 10181 10186 10192 10199 10204 10210 10217 10223 10227 10232 10235 10236 10239 10240 10240 10243 10247 10246 10248 10252 10251 10248 10246 10245 10244
10077 10076 10076 10076 10078 10083 10085 10087 10088 10090 10099 10106 10114 10123 10131 10136 10144 10151 10156 10161 10166 10171 10175 10180 10184 10189 10197 10199 10201 10201 10201 10203 10204 10205 10207 10212 10214 10216 10219 10217 10214 10211 10208 10205
10072 10069 10068 10068 10068 10068 10069 10071 10072 10074 10080 10090 10099 10103 10109 10117 10123 10128 10135 10140 10145 10148 10153 10160 10160 10163 10165 10169 10171 10168 10167 10166 10168 10173 10178 10182 10182 10181 10182 10182 10180 10177 10174 10172
10067 10064 10061 10059 10057 10057 10059 10060 10061 10064 10070 10078 10084 10089 10093 10098 10103 10107 10112 10118 10123 10128 10133 10136 10136 10136 10138 10142 10136 10134 10137 10142 10147 10150 10151 10153 10152 10149 10146 10145 10143 10141 10139 10137
10064 10060 10056 10054 10052 10052 10052 10052 10053 10057 10061 10065 10069 10072 10075 10079 10085 10087 10095 10098 10101 10106 10110 10111 10109 10110 10109 10108 10106 10110 10115 10118 10120 10122 10121 10121 10118 10114 10112 10111 10109 10107 10106 10106
10058 10053 10050 10048 10046 10045 10045 10044 10044 10045 10046 10048 10051 10055 10058 10062 10065 10067 10074 10080 10081 10086 10085 10082 10081 10088 10084 10081 10084 10089 10090 10091 10094 10095 10091 10089 10089 10086 10084 10082 10079 10077 10075 10072
10054 10048 10042 10039 10037 10036 10035 10034 10034 10034 10035 10036 10037 10039 10042 10045 10049 10052 10057 10061 10062 10062 10062 10060 10067 10064 10059 10065 10065 10068 10068 10070 10071 10068 10066 10063 10061 10058 10055 10053 10050 10048 10044 10042
10048 10042 10037 10032 10028 10026 10025 10024 10023 10023 10024 10024 10025 10027 10030 10033 10035 10037 10039 10039 10042 10045 10042 10043 10043 10036 10040 10044 10047 10047 10048 10047 10044 10042 10040 10038 10036 10033 10030 10027 10025 10023 10019 10015
10040 10034 10030 10025 10021 10018 10015 10012 10012 10013 10013 10013 10014 10014 10016 10017 10019 10020 10021 10024 10025 10024 10028 10025 10017 10024 10029 10029 10029 10028 10026 10024 10022 10021 10018 10016 10014 10012 10009 10006 10004 10001 9997 9992
10032 10025 10020 10016 10013 10009 10006 10004 10001 10000 10000 10001 10001 10001 10002 10003 10004 10005 10007 10008 10007 10006 10002 10001 10008 10010 10009 10007 10007 10006 10006 10005 10003 10002 9999 9997 9995 9991 9988 9987 9983 9980 9975 9969
10025 10017 10010 10006 10003 9999 9995 9992 9990 9989 9988 9988 9988 9988 9989 9989 9989 9989 9989 9990 9990 9987 9987 9990 9990 9990 9989 9989 9988 9987 9986 9984 9983 9981 9978 9976 9974 9971 9966 9964 9961 9958 9954 9951
10019 10010 10002 9996 9993 9989 9985 9982 9979 9976 9975 9975 9974 9974 9975 9976 9976 9975 9976 9975 9972 9972 9973 9972 9971 9971 9970 9969 9968 9966 9964 9962 9961 9959 9957 9955 9954 9951 9946 9940 9940 9936 9935 9930
10009 10001 9993 9986 9981 9978 9974 9971 9968 9966 9964 9962 9962 9961 9961 9962 9962 9960 9959 9959 9959 9959 9958 9957 9955 9954 9952 9950 9948 9946 9945 9943 9942 9939 9938 9936 9933 9929 9925 9920 9919 9916 9915 9912